Year,Month,Day,Hour,Minute,Value (Times are PST for windgust in km/hr)
2020,09,06,14,09,8.10
2020,09,06,14,10,9.60
2020,09,06,14,11,9.60
2020,09,06,14,12,8.10
2020,09,06,14,13,4.80
2020,09,06,14,14,8.10
2020,09,06,14,15,9.60
2020,09,06,14,16,11.30
2020,09,06,14,17,8.10
2020,09,06,14,18,6.40
2020,09,06,14,19,6.40
2020,09,06,14,20,11.30
2020,09,06,14,21,9.60
2020,09,06,14,22,8.10
2020,09,06,14,23,6.40
2020,09,06,14,24,6.40
2020,09,06,14,25,3.20
2020,09,06,14,26,6.40
2020,09,06,14,27,6.40
2020,09,06,14,28,16.10
2020,09,06,14,29,6.40
2020,09,06,14,30,8.10
2020,09,06,14,31,6.40
2020,09,06,14,32,11.30
2020,09,06,14,33,8.10
2020,09,06,14,34,8.10
2020,09,06,14,35,9.60
2020,09,06,14,36,9.60
2020,09,06,14,37,11.30
2020,09,06,14,38,11.30
2020,09,06,14,39,11.30
2020,09,06,14,40,6.40
2020,09,06,14,41,8.10
2020,09,06,14,42,9.60
2020,09,06,14,43,6.40
2020,09,06,14,44,8.10
2020,09,06,14,45,8.10
2020,09,06,14,46,9.60
2020,09,06,14,47,9.60
2020,09,06,14,48,6.40
2020,09,06,14,49,6.40
2020,09,06,14,50,8.10
2020,09,06,14,51,9.60
2020,09,06,14,52,4.80
2020,09,06,14,53,8.10
2020,09,06,14,54,8.10
2020,09,06,14,55,8.10
2020,09,06,14,56,11.30
2020,09,06,14,57,6.40
2020,09,06,14,58,8.10
2020,09,06,14,59,9.60
2020,09,06,15,00,8.10
2020,09,06,15,01,6.40
2020,09,06,15,02,11.30
2020,09,06,15,03,9.60
2020,09,06,15,04,8.10
2020,09,06,15,05,6.40
2020,09,06,15,06,9.60
2020,09,06,15,07,11.30
2020,09,06,15,08,6.40
2020,09,06,15,09,11.30
2020,09,06,15,10,11.30
2020,09,06,15,11,9.60
2020,09,06,15,12,9.60
2020,09,06,15,13,8.10
2020,09,06,15,14,9.60
2020,09,06,15,15,9.60
2020,09,06,15,16,8.10
2020,09,06,15,17,6.40
2020,09,06,15,18,1.60
2020,09,06,15,19,6.40
2020,09,06,15,20,3.20
2020,09,06,15,21,4.80
2020,09,06,15,22,8.10
2020,09,06,15,23,9.60
2020,09,06,15,24,11.30
2020,09,06,15,25,8.10
2020,09,06,15,26,4.80
2020,09,06,15,27,8.10
2020,09,06,15,28,8.10
2020,09,06,15,29,8.10
2020,09,06,15,30,6.40
2020,09,06,15,31,9.60
2020,09,06,15,32,12.90
2020,09,06,15,33,4.80
2020,09,06,15,34,6.40
2020,09,06,15,35,8.10
2020,09,06,15,36,9.60
2020,09,06,15,37,11.30
2020,09,06,15,38,8.10
2020,09,06,15,39,11.30
2020,09,06,15,40,8.10
2020,09,06,15,41,8.10
2020,09,06,15,42,8.10
2020,09,06,15,43,8.10
2020,09,06,15,44,8.10
2020,09,06,15,45,4.80
2020,09,06,15,46,6.40
2020,09,06,15,47,9.60
2020,09,06,15,48,8.10
2020,09,06,15,49,11.30
2020,09,06,15,50,6.40
2020,09,06,15,51,6.40
2020,09,06,15,52,9.60
2020,09,06,15,53,8.10
2020,09,06,15,54,9.60
2020,09,06,15,55,11.30
2020,09,06,15,56,9.60
2020,09,06,15,57,8.10
2020,09,06,15,58,6.40
2020,09,06,15,59,4.80
2020,09,06,16,00,4.80
2020,09,06,16,01,6.40
2020,09,06,16,02,8.10
2020,09,06,16,03,8.10
2020,09,06,16,04,6.40
2020,09,06,16,05,6.40
2020,09,06,16,06,6.40
2020,09,06,16,07,6.40
2020,09,06,16,08,8.10
2020,09,06,16,09,9.60
2020,09,06,16,10,8.10
2020,09,06,16,11,6.40
2020,09,06,16,12,9.60
2020,09,06,16,13,6.40
2020,09,06,16,14,8.10
2020,09,06,16,15,6.40
2020,09,06,16,16,6.40
2020,09,06,16,17,8.10
2020,09,06,16,18,11.30
2020,09,06,16,19,8.10
2020,09,06,16,20,11.30
2020,09,06,16,21,9.60
2020,09,06,16,22,4.80
2020,09,06,16,23,6.40
2020,09,06,16,24,8.10
2020,09,06,16,25,9.60
2020,09,06,16,26,9.60
2020,09,06,16,27,8.10
2020,09,06,16,28,11.30
2020,09,06,16,29,8.10
2020,09,06,16,30,9.60
2020,09,06,16,31,8.10
2020,09,06,16,32,9.60
2020,09,06,16,33,6.40
2020,09,06,16,34,9.60
2020,09,06,16,35,6.40
2020,09,06,16,36,6.40
2020,09,06,16,37,8.10
2020,09,06,16,38,3.20
2020,09,06,16,39,3.20
2020,09,06,16,40,4.80
2020,09,06,16,41,6.40
2020,09,06,16,42,8.10
2020,09,06,16,43,9.60
2020,09,06,16,44,4.80
2020,09,06,16,45,6.40
2020,09,06,16,46,1.60
2020,09,06,16,47,6.40
2020,09,06,16,48,8.10
2020,09,06,16,49,8.10
2020,09,06,16,50,4.80
2020,09,06,16,51,3.20
2020,09,06,16,52,4.80
2020,09,06,16,53,8.10
2020,09,06,16,54,9.60
2020,09,06,16,55,6.40
2020,09,06,16,56,6.40
2020,09,06,16,57,8.10
2020,09,06,16,58,9.60
2020,09,06,16,59,8.10
2020,09,06,17,00,11.30
2020,09,06,17,01,9.60
2020,09,06,17,02,4.80
2020,09,06,17,03,9.60
2020,09,06,17,04,6.40
2020,09,06,17,05,6.40
2020,09,06,17,06,3.20
2020,09,06,17,07,3.20
2020,09,06,17,08,6.40
2020,09,06,17,09,4.80
2020,09,06,17,10,4.80
2020,09,06,17,11,8.10
2020,09,06,17,12,3.20
2020,09,06,17,13,1.60
2020,09,06,17,14,3.20
2020,09,06,17,15,8.10
2020,09,06,17,16,4.80
2020,09,06,17,17,3.20
2020,09,06,17,18,11.30
2020,09,06,17,19,9.60
2020,09,06,17,20,8.10
2020,09,06,17,21,6.40
2020,09,06,17,22,6.40
2020,09,06,17,23,9.60
2020,09,06,17,24,6.40
2020,09,06,17,25,4.80
2020,09,06,17,26,4.80
2020,09,06,17,27,6.40
2020,09,06,17,28,8.10
2020,09,06,17,29,4.80
2020,09,06,17,30,6.40
2020,09,06,17,31,3.20
2020,09,06,17,32,1.60
2020,09,06,17,33,4.80
2020,09,06,17,34,8.10
2020,09,06,17,35,3.20
2020,09,06,17,36,3.20
2020,09,06,17,37,4.80
2020,09,06,17,38,4.80
2020,09,06,17,39,3.20
2020,09,06,17,40,4.80
2020,09,06,17,41,4.80
2020,09,06,17,42,1.60
2020,09,06,17,43,9.60
2020,09,06,17,44,4.80
2020,09,06,17,45,6.40
2020,09,06,17,46,4.80
2020,09,06,17,47,3.20
2020,09,06,17,48,3.20
2020,09,06,17,49,1.60
2020,09,06,17,50,6.40
2020,09,06,17,51,4.80
2020,09,06,17,52,8.10
2020,09,06,17,53,8.10
2020,09,06,17,54,6.40
2020,09,06,17,55,4.80
2020,09,06,17,56,9.60
2020,09,06,17,57,6.40
2020,09,06,17,58,6.40
2020,09,06,17,59,8.10
2020,09,06,18,00,4.80
2020,09,06,18,01,8.10
2020,09,06,18,02,6.40
2020,09,06,18,03,4.80
2020,09,06,18,04,4.80
2020,09,06,18,05,3.20
2020,09,06,18,06,6.40
2020,09,06,18,07,6.40
2020,09,06,18,08,3.20
2020,09,06,18,09,4.80
2020,09,06,18,10,4.80
2020,09,06,18,11,6.40
2020,09,06,18,12,6.40
2020,09,06,18,13,8.10
2020,09,06,18,14,6.40
2020,09,06,18,15,6.40
2020,09,06,18,16,8.10
2020,09,06,18,17,9.60
2020,09,06,18,18,6.40
2020,09,06,18,19,8.10
2020,09,06,18,20,6.40
2020,09,06,18,21,3.20
2020,09,06,18,22,3.20
2020,09,06,18,23,3.20
2020,09,06,18,24,3.20
2020,09,06,18,25,1.60
2020,09,06,18,26,3.20
2020,09,06,18,27,4.80
2020,09,06,18,28,1.60
2020,09,06,18,29,1.60
2020,09,06,18,30,1.60
2020,09,06,18,31,1.60
2020,09,06,18,32,1.60
2020,09,06,18,33,1.60
2020,09,06,18,34,1.60
2020,09,06,18,35,3.20
2020,09,06,18,36,4.80
2020,09,06,18,37,6.40
2020,09,06,18,38,6.40
2020,09,06,18,39,1.60
2020,09,06,18,40,1.60
2020,09,06,18,41,1.60
2020,09,06,18,42,1.60
2020,09,06,18,43,3.20
2020,09,06,18,44,1.60
2020,09,06,18,45,3.20
2020,09,06,18,46,1.60
2020,09,06,18,48,1.60
2020,09,06,18,49,1.60
2020,09,06,18,50,4.80
2020,09,06,18,51,1.60
2020,09,06,18,52,3.20
2020,09,06,18,53,3.20
2020,09,06,18,55,1.60
2020,09,06,18,56,1.60
2020,09,06,18,57,3.20
2020,09,06,18,58,4.80
2020,09,06,18,59,1.60
2020,09,06,19,00,1.60
2020,09,06,19,01,1.60
2020,09,06,19,02,1.60
2020,09,06,19,03,1.60
2020,09,06,19,04,1.60
2020,09,06,19,05,1.60
2020,09,06,19,06,1.60
2020,09,06,19,07,1.60
2020,09,06,19,08,1.60
2020,09,06,19,10,1.60
2020,09,06,19,11,1.60
2020,09,06,19,12,1.60
2020,09,06,19,13,3.20
2020,09,06,19,14,3.20
2020,09,06,19,15,3.20
2020,09,06,19,16,1.60
2020,09,06,19,17,3.20
2020,09,06,19,18,3.20
2020,09,06,19,19,1.60
2020,09,06,19,20,1.60
2020,09,06,19,21,1.60
2020,09,06,19,24,1.60
2020,09,06,19,25,3.20
2020,09,06,19,26,3.20
2020,09,06,19,27,3.20
2020,09,06,19,29,1.60
2020,09,06,19,30,3.20
2020,09,06,19,31,1.60
2020,09,06,19,32,4.80
2020,09,06,19,33,4.80
2020,09,06,19,34,4.80
2020,09,06,19,35,4.80
2020,09,06,19,36,4.80
2020,09,06,19,37,4.80
2020,09,06,19,38,4.80
2020,09,06,19,39,4.80
2020,09,06,19,40,4.80
2020,09,06,19,41,4.80
2020,09,06,19,42,4.80
2020,09,06,19,43,4.80
2020,09,06,19,44,4.80
